Regional Weather Roundup
Issued by NWS Upton, NY

Current Version | Previous Version | Text Only | Print | Product List | Glossary On
Versions: 1 2 3 4 5 6 7 8 9 10 11 12 13 14 15 16 17 18 19 20 21 22 23 24 25 26 27
000
ASUS41 KOKX 261204
RWROKX

REGIONAL WEATHER ROUNDUP
NATIONAL WEATHER SERVICE NEW YORK NY
800 AM EDT TUE JUL 26 2016

NOTE: "FAIR" INDICATES FEW OR NO CLOUDS BELOW 12,000 FEET WITH NO
SIGNIFICANT WEATHER AND/OR OBSTRUCTIONS TO VISIBILITY.

NYZ071-072-176-178-NJZ106-104-261300-
NEW YORK CITY METRO AREA

CITY           SKY/WX    TMP DP  RH WIND       PRES   REMARKS
Central Park   SUNNY     74  68  81 VRB5      29.94R
LaGuardia APRT MOSUNNY   77  69  76 NW8       29.91R
Kennedy INTL   MOSUNNY   79  69  71 NW12      29.92R
Newark/Liberty PTSUNNY   77  69  76 NW10      29.92R
Bronx Bot Gard   N/A     75  66  73 W22       29.93R
Wall St Helipt SUNNY     75  70  83 SW5       29.92S
Teterboro      SUNNY     76  68  76 NW9       29.91R
$$

NYZ177-179-078>081-261300-
LONG ISLAND NEW YORK

CITY           SKY/WX    TMP DP  RH WIND       PRES   REMARKS
Farmingdale    SUNNY     77  69  76 NW8       29.90R
MacArthur/ISP  MOSUNNY   76  70  82 NW10      29.89R
Shirley        SUNNY     76  70  82 NW10      29.90R
Riverhead      NOT AVBL
Westhampton    SUNNY     75  69  81 NW9       29.91R
Southhampton     N/A     75  72  88 N6        29.85R
Bridgehampton    N/A     72  70  94 S2        29.87S
East Hampton   FAIR      74  69  85 NW6       29.88R
Montauk          N/A     75  70  84 W5        29.88S
$$

NYZ052-065-067-261300-
HUDSON VALLEY

CITY           SKY/WX    TMP DP  RH WIND       PRES   REMARKS
White Plains   SUNNY     74  69  85 VRB6      29.91R
Newburgh       MOSUNNY   72  70  94 W7        29.93R
Montgomery     SUNNY     73  70  90 SW6       29.92R
Poughkeepsie   SUNNY     75  69  81 VRB3      29.89R
Albany         MOSUNNY   75  66  73 SW6       29.88S
$$

NJZ001-105-106-008-010-013-015-019>022-104-261300-
NEW JERSEY

CITY           SKY/WX    TMP DP  RH WIND       PRES   REMARKS
Newark/Liberty PTSUNNY   77  69  76 NW10      29.92R
Teterboro      SUNNY     76  68  76 NW9       29.91R
Caldwell       SUNNY     74  68  81 W5        29.93R
Morristown     NOT AVBL
Somerville     SUNNY     74  69  85 N3        29.92R
Linden         FAIR      74  68  81 NW8       29.94S
Sussex         SUNNY     69  69 100 S3        29.94S
Abdover          N/A     67  67 100 S3        29.96R
Trenton        CLOUDY    74  70  87 NW5       29.93R
Millville      MOSUNNY   78  73  84 NW7       29.93F
Atlantic City  MOSUNNY   78  72  81 NW8       29.93S
Wrightstown    CLOUDY    75  72  89 NW6       29.91S
Toms River     CLOUDY    75  72  90 NW6       29.94R
Belmar         CLOUDY    75  71  87 W7        29.94R
$$

PAZ047>061-062-071-261300-
EASTERN PENNSYLVANIA

CITY           SKY/WX    TMP DP  RH WIND       PRES   REMARKS
Philadelphia   PTSUNNY   77  71  82 W3        29.94S
Allentown      CLOUDY    71  68  90 SW3       29.95S
Scranton       PTSUNNY   71  68  90 SW7       29.98R
$$

CTZ002-004>006-009-010-012-RIZ004-006-007-MAZ004-011-015-261300-
SOUTHERN NEW ENGLAND
 IN CT

CITY           SKY/WX    TMP DP  RH WIND       PRES   REMARKS
Bradley INTL   MOSUNNY   77  66  68 VRB6      29.86R
Hartford       SUNNY     78  69  73 CALM      29.87R
Danbury        SUNNY     72  69  90 W6        29.92R
Wtrbury/Oxford MOSUNNY   70  64  83 NW5       29.92R
Bridgeport     SUNNY     75  68  78 W7        29.89R
Meriden        SUNNY     75  68  78 VRB3      29.88R
New Haven      MOSUNNY   73  69  87 W6        29.89R
Chester        FAIR      73  70  88 CALM      29.89S
Groton         SUNNY     76  69  79 VRB6      29.86S
Wilimantic     NOT AVBL

 IN RI

CITY           SKY/WX    TMP DP  RH WIND       PRES   REMARKS
Providence     MOSUNNY   77  67  71 W9        29.85R
Block Island   SUNNY     73  69  87 W9        29.87S
Westerly       SUNNY     75  67  76 W5        29.87R
 IN MA

CITY           SKY/WX    TMP DP  RH WIND       PRES   REMARKS
Boston         MOSUNNY   81  65  58 W14G20    29.80F
Worchester     SUNNY     73  65  75 W12       29.87S
Westfield      SUNNY     76  66  71 SE3       29.86S
Provincetown   SUNNY     75  69  81 W10       29.81S
Nantucket      SUNNY     74  69  85 W13       29.83S
$$

ANZ330-335-338-340-345-350-353-355-261300-
COASTAL MARINE OBSERVATIONS


STATION/POSITION TIME  SKY/WX   TEMP    WIND        PRES    VSBY  WAVE
                                AIR SEA DIR/SP/G                  HT/PER
                 (UTC)          (F)     (DEG/KT/KT) (MB)    (MI)  (FT/S)
NY HARB ENTRANCE 1050            73 72  300/ 14/ 16 1012.0          2/ 6
20S FIRE ISLAND  1050            74 74  310/ 16/ 17 1011.4          3/ 6
GREAT SOUTH BAY  1100            74 80  290/ 10/ 12   N/A
23 SSW MONTAUK P 1050            71 68  270/  6/  8 1011.9          2/ 5
15 E BARNEGAT LI NOT AVBL
HUDSON CANYON    1050            77 77              1011.7          3/ 6
KINGS POINT      1100            74 72              1012.3
EXECUTION ROCKS  1100            76     270/  6/ 10   N/A
CENTRAL LI SOUND 1100            73 73  270/  8/ 10   N/A           1/ 3
EASTERN LI SOUND 1100            72 67  280/  6/  8   N/A
ROBBINS REEF     1100            74     260/  7/  7 1012.1
$$


>>>>>>>>>>>>>>>>>>>>>>>>>>>> KEY <<<<<<<<<<<<<<<<<<<<<<<<<<<
>                                                          <
>     SKY/WX - Sky Condition/Present Weather               <
>     TMP    - Temperature in Fahrenheit                   <
>     DP     - Dew Point in Fahrenheit                     <
>     RH     - Relative Humidity in Percent                <
>     WIND   - Direction (from) and Speed in MPH           <
>     PRES   - Mean Sea Level Pressure (inches of Hg)      <
>     WCI    - Wind Chill Index                            <
>     VSB    - VISIBILITY IN MILES                         <
>     HX     - HEAT INDEX                                  <
>     TC     - TEMPERATURE IN CELSIUS                      <
>     VRB    - VARIABLE WIND DIRECTION                     <
>                                                          <
>>>>>>>>>>>>>>>>>>>>>>>>>>>> KEY <<<<<<<<<<<<<<<<<<<<<<<<<<<




USA.gov is the U.S. government's official web portal to all federal, state and local government web resources and services.